When you browse on this site, cookies collect data to enhance your experience and personalize the content and advertising you see.
Visit our Privacy Policy to learn more. By continuing to use the site, you agree to this use of cookies and data.
  • In Hungary
  • List of Countries
  • For 7 days
  • Water Temperature
  • Satellite Maps
  • Weather Map
  • News
  • Weather Widgets
  • user-avatar
    Login

    Hourly Weather Andora

    Today, 19 April, Friday

    Time Temperature Precipitation Wind Pressure Humidity
    00:00 +6°C° 0 mm 2 mps 624 mmHg 59%
    01:00 +5°C° 0.1 mm 2 mps 624 mmHg 60%
    02:00 +5°C° 0.1 mm 2 mps 624 mmHg 61%
    03:00 +4°C° 0.1 mm 2 mps 623 mmHg 62%
    04:00 +5°C° 0.1 mm 2 mps 624 mmHg 61%
    05:00 +5°C° 0.1 mm 2 mps 624 mmHg 60%
    06:00 +6°C° 0 mm 2 mps 625 mmHg 58%
    07:00 +8°C° 0.1 mm 2 mps 626 mmHg 53%
    08:00 +9°C° 0.1 mm 2 mps 627 mmHg 48%
    09:00 +12°C° 0.1 mm 2 mps 628 mmHg 42%
    10:00 +13°C° 0.1 mm 2 mps 628 mmHg 40%
    11:00 +15°C° 0.1 mm 2 mps 629 mmHg 38%
    12:00 +16°C° 0 mm 1 mps 630 mmHg 35%
    13:00 +16°C° 0 mm 1 mps 630 mmHg 37%
    14:00 +16°C° 0 mm 1 mps 630 mmHg 38%
    15:00 +16°C° 0 mm 2 mps 630 mmHg 40%
    16:00 +15°C° 0.1 mm 1 mps 630 mmHg 47%
    17:00 +13°C° 0.1 mm 1 mps 629 mmHg 53%
    18:00 +12°C° 0.1 mm 1 mps 629 mmHg 60%
    19:00 +10°C° 0.1 mm 1 mps 629 mmHg 63%
    20:00 +9°C° 0.1 mm 1 mps 628 mmHg 65%
    21:00 +8°C° 0.1 mm 1 mps 628 mmHg 68%
    22:00 +8°C° 0 mm 1 mps 628 mmHg 67%
    23:00 +7°C° 0 mm 1 mps 628 mmHg 65%

    Tomorrow, 20 April, Saturday

    Time Temperature Precipitation Wind Pressure Humidity
    00:00 +7°C° 0 mm 1 mps 628 mmHg 64%
    01:00 +7°C° 0 mm 1 mps 627 mmHg 64%
    02:00 +6°C° 0 mm 1 mps 627 mmHg 64%
    03:00 +6°C° 0 mm 1 mps 627 mmHg 64%
    04:00 +6°C° 0 mm 1 mps 627 mmHg 63%
    05:00 +6°C° 0 mm 1 mps 626 mmHg 62%
    06:00 +7°C° 0 mm 1 mps 626 mmHg 62%
    07:00 +9°C° 0 mm 1 mps 627 mmHg 55%
    08:00 +11°C° 0 mm 1 mps 628 mmHg 48%
    09:00 +13°C° 0 mm 1 mps 629 mmHg 41%
    10:00 +14°C° 0 mm 1 mps 629 mmHg 41%
    11:00 +14°C° 0 mm 2 mps 629 mmHg 41%
    12:00 +15°C° 0 mm 2 mps 629 mmHg 41%
    13:00 +13°C° 0.4 mm 2 mps 628 mmHg 48%
    14:00 +12°C° 0.4 mm 2 mps 627 mmHg 56%
    15:00 +9°C° 0.4 mm 2 mps 627 mmHg 63%
    16:00 +9°C° 0.9 mm 1 mps 626 mmHg 70%
    17:00 +8°C° 0.9 mm 1 mps 626 mmHg 77%
    18:00 +7°C° 0.9 mm 1 mps 625 mmHg 84%
    19:00 +7°C° 2 mm 1 mps 625 mmHg 87%
    20:00 +6°C° 2 mm 1 mps 625 mmHg 89%
    21:00 +4°C° 2 mm 2 mps 625 mmHg 92%
    22:00 +5°C° 1.5 mm 1 mps 625 mmHg 92%
    23:00 +5°C° 1.5 mm 1 mps 624 mmHg 91%

    Day after tomorrow, 21 April, Sunday

    Time Temperature Precipitation Wind Pressure Humidity
    00:00 +5°C° 1.5 mm 1 mps 624 mmHg 91%
    01:00 +5°C° 0.6 mm 1 mps 623 mmHg 91%
    02:00 +5°C° 0.6 mm 1 mps 623 mmHg 91%
    03:00 +4°C° 0.6 mm 1 mps 622 mmHg 91%
    04:00 +4°C° 0.1 mm 1 mps 622 mmHg 91%
    05:00 +4°C° 0.1 mm 1 mps 622 mmHg 90%
    06:00 +4°C° 0.1 mm 1 mps 622 mmHg 90%
    07:00 +6°C° 0 mm 1 mps 622 mmHg 85%
    08:00 +7°C° 0 mm 1 mps 623 mmHg 80%
    09:00 +7°C° 0 mm 2 mps 623 mmHg 75%
    10:00 +8°C° 0 mm 2 mps 623 mmHg 72%
    11:00 +9°C° 0 mm 2 mps 623 mmHg 68%
    12:00 +9°C° 0 mm 2 mps 623 mmHg 65%
    13:00 +9°C° 0 mm 2 mps 622 mmHg 65%
    14:00 +9°C° 0 mm 2 mps 622 mmHg 65%
    15:00 +9°C° 0 mm 2 mps 621 mmHg 65%
    16:00 +8°C° 0.5 mm 2 mps 621 mmHg 73%
    17:00 +8°C° 0.5 mm 1 mps 620 mmHg 81%
    18:00 +6°C° 0.5 mm 1 mps 619 mmHg 89%
    19:00 +6°C° 0.1 mm 1 mps 619 mmHg 89%
    20:00 +5°C° 0.1 mm 1 mps 619 mmHg 90%
    21:00 +4°C° 0.1 mm 1 mps 618 mmHg 91%
    22:00 +4°C° 0.1 mm 1 mps 618 mmHg 90%
    23:00 +4°C° 0.1 mm 1 mps 617 mmHg 89%

    22 April, Monday

    Time Temperature Precipitation Wind Pressure Humidity
    00:00 +4°C° 0.1 mm 1 mps 617 mmHg 89%
    01:00 +4°C° 0 mm 1 mps 616 mmHg 89%
    02:00 +4°C° 0 mm 1 mps 616 mmHg 90%
    03:00 +3°C° 0 mm 1 mps 615 mmHg 91%
    04:00 +4°C° 0 mm 1 mps 615 mmHg 90%
    05:00 +4°C° 0 mm 1 mps 614 mmHg 90%
    06:00 +4°C° 0 mm 1 mps 614 mmHg 89%
    07:00 +5°C° 0.1 mm 1 mps 614 mmHg 84%
    08:00 +7°C° 0.1 mm 1 mps 615 mmHg 79%
    09:00 +8°C° 0.1 mm 1 mps 615 mmHg 74%
    10:00 +9°C° 0.4 mm 1 mps 615 mmHg 75%
    11:00 +9°C° 0.4 mm 1 mps 615 mmHg 75%
    12:00 +9°C° 0.4 mm 1 mps 614 mmHg 75%
    13:00 +8°C° 1 mm 1 mps 614 mmHg 79%
    14:00 +8°C° 1 mm 1 mps 613 mmHg 82%
    15:00 +7°C° 1 mm 1 mps 613 mmHg 85%
    16:00 +7°C° 0.6 mm 1 mps 612 mmHg 87%
    17:00 +7°C° 0.6 mm 1 mps 612 mmHg 89%
    18:00 +7°C° 0.6 mm 1 mps 612 mmHg 91%
    19:00 +6°C° 0.7 mm 1 mps 612 mmHg 93%
    20:00 +6°C° 0.7 mm 1 mps 612 mmHg 94%
    21:00 +5°C° 0.7 mm 1 mps 612 mmHg 96%
    22:00 +5°C° 0.7 mm 1 mps 612 mmHg 95%
    23:00 +5°C° 0.7 mm 1 mps 611 mmHg 95%

    23 April, Tuesday

    Time Temperature Precipitation Wind Pressure Humidity
    00:00 +5°C° 0.7 mm 1 mps 611 mmHg 94%
    01:00 +5°C° 0.6 mm 1 mps 611 mmHg 94%
    02:00 +5°C° 0.6 mm 1 mps 610 mmHg 93%
    03:00 +4°C° 0.6 mm 1 mps 610 mmHg 92%
    04:00 +5°C° 0.2 mm 1 mps 610 mmHg 92%
    05:00 +5°C° 0.2 mm 1 mps 610 mmHg 92%
    06:00 +5°C° 0.2 mm 1 mps 610 mmHg 92%
    07:00 +5°C° 0 mm 2 mps 611 mmHg 87%
    08:00 +7°C° 0 mm 2 mps 612 mmHg 82%
    09:00 +9°C° 0 mm 3 mps 613 mmHg 77%
    10:00 +9°C° 0.4 mm 3 mps 613 mmHg 76%
    11:00 +9°C° 0.4 mm 3 mps 613 mmHg 75%
    12:00 +9°C° 0.4 mm 3 mps 613 mmHg 74%
    13:00 +9°C° 0.6 mm 3 mps 613 mmHg 75%
    14:00 +9°C° 0.6 mm 3 mps 612 mmHg 76%
    15:00 +8°C° 0.6 mm 3 mps 612 mmHg 77%
    16:00 +8°C° 0.1 mm 3 mps 612 mmHg 79%
    17:00 +7°C° 0.1 mm 2 mps 612 mmHg 81%
    18:00 +6°C° 0.1 mm 2 mps 612 mmHg 83%
    19:00 +6°C° 0.2 mm 2 mps 612 mmHg 86%
    20:00 +5°C° 0.2 mm 2 mps 613 mmHg 89%
    21:00 +5°C° 0.2 mm 2 mps 613 mmHg 92%
    22:00 +4°C° 0 mm 2 mps 613 mmHg 89%
    23:00 +3°C° 0 mm 2 mps 613 mmHg 87%

    24 April, Wednesday

    Time Temperature Precipitation Wind Pressure Humidity
    00:00 +2°C° 0 mm 2 mps 613 mmHg 84%
    01:00 +2°C° 0 mm 2 mps 613 mmHg 83%
    02:00 +2°C° 0 mm 2 mps 613 mmHg 82%
    03:00 +2°C° 0 mm 2 mps 613 mmHg 82%
    04:00 +2°C° 0.2 mm 2 mps 614 mmHg 84%
    05:00 +2°C° 0.2 mm 2 mps 614 mmHg 86%
    06:00 +2°C° 0.2 mm 2 mps 615 mmHg 88%
    07:00 +2°C° 0.9 mm 2 mps 615 mmHg 87%
    08:00 +3°C° 0.9 mm 2 mps 616 mmHg 86%
    09:00 +3°C° 0.9 mm 2 mps 616 mmHg 84%
    10:00 +3°C° 1.3 mm 2 mps 616 mmHg 86%
    11:00 +3°C° 1.3 mm 2 mps 616 mmHg 88%
    12:00 +3°C° 1.3 mm 2 mps 616 mmHg 90%
    13:00 +3°C° 0.4 mm 2 mps 616 mmHg 89%
    14:00 +3°C° 0.4 mm 2 mps 616 mmHg 88%
    15:00 +3°C° 0.4 mm 2 mps 617 mmHg 87%
    16:00 +3°C° 0 mm 2 mps 617 mmHg 87%
    17:00 +3°C° 0 mm 2 mps 617 mmHg 87%
    18:00 +2°C° 0 mm 2 mps 617 mmHg 87%
    19:00 +1°C° 0 mm 2 mps 617 mmHg 88%
    20:00 +1°C° 0 mm 1 mps 617 mmHg 88%
    21:00 0°C° 0 mm 1 mps 617 mmHg 89%
    22:00 -2°C° 0 mm 2 mps 617 mmHg 90%
    23:00 -2°C° 0 mm 2 mps 617 mmHg 91%
    Show more